Weather History for Alpine, TX

Change the Weather History Date:

Thursday, October 4, 2012

  Actual Average (KMRF) Record (KMRF)
Temperature  
Mean Temperature 68 °F -  
Max Temperature 81 °F 75 °F 89 °F (2000)
Min Temperature 54 °F 48 °F 42 °F (2014)
Cooling Degree Days 2    
Growing Degree Days 18 (Base 50)    
Moisture  
Dew Point 42 °F    
Average Humidity 41    
Maximum Humidity 80    
Minimum Humidity 20    
Precipitation  
Precipitation 0.00 in - - ()
Sea Level Pressure  
Sea Level Pressure 30.26 in    
Wind  
Wind Speed 8 mph (SSE)    
Max Wind Speed 15 mph    
Max Gust Speed 23 mph    
Visibility 10 miles    
Events      
Averages and records for this station are not official NWS values.
T = Trace of Precipitation, MM = Missing Value Source: NWS Daily Summary

Daily Weather History Graph

Daily Weather History Graph

Search for Another Location

Airport:

Trip Planner

Search our weather history database for the weather conditions in past years. The results will help you decide how hot, cold, wet, or windy it might be!

Date:

Astronomy

Oct. 04, 2012 Rise Set
Actual Time 7:50 AM CDT 7:35 PM CDT
Civil Twilight 7:26 AM CDT 7:59 PM CDT
Nautical Twilight 6:58 AM CDT 8:27 PM CDT
Astronomical Twilight 6:30 AM CDT 8:55 PM CDT
Moon 10:32 PM CDT (10/4) 11:50 AM CDT (10/4)
Length of Visible Light 12h 33m
Length of Day
11h 45m
Waning Gibbous, 82% of the Moon is Illuminated
Oct 4
Waning Gibbous
Oct 8
Last Quarter
Oct 15
New
Oct 21
First Quarter
Oct 29
Full

Hourly Weather History & Observations

Time (CDT) Temp. Dew Point Humidity Pressure Visibility Wind Dir Wind Speed Gust Speed Precip Events Conditions
12:15 AM 60.8 °F 41.7 °F 49% 30.19 in 10.0 mi SSW 9.2 mph - N/A   Clear
12:35 AM 62.4 °F 39.9 °F 44% 30.19 in 10.0 mi SSW 9.2 mph - N/A   Clear
12:55 AM 62.2 °F 39.6 °F 43% 30.19 in 10.0 mi SSW 9.2 mph - N/A   Clear
1:15 AM 62.1 °F 39.4 °F 43% 30.19 in 10.0 mi South 9.2 mph - N/A   Clear
1:35 AM 63.0 °F 38.8 °F 41% 30.19 in 10.0 mi SSW 10.4 mph - N/A   Clear
1:55 AM 62.2 °F 39.0 °F 42% 30.19 in 10.0 mi SW 9.2 mph - N/A   Clear
2:15 AM 63.1 °F 38.3 °F 40% 30.19 in 10.0 mi SW 8.1 mph - N/A   Clear
2:35 AM 62.2 °F 38.8 °F 42% 30.19 in 10.0 mi SSW 8.1 mph - N/A   Clear
2:55 AM 59.9 °F 39.9 °F 48% 30.19 in 10.0 mi SSW 10.4 mph - N/A   Clear
3:15 AM 62.6 °F 38.1 °F 40% 30.19 in 10.0 mi SSW 9.2 mph - N/A   Clear
3:35 AM 62.2 °F 37.9 °F 41% 30.19 in 10.0 mi SSW 10.4 mph - N/A   Clear
3:55 AM 64.8 °F 36.5 °F 35% 30.19 in 10.0 mi SSW 10.4 mph - N/A   Clear
4:15 AM 67.5 °F 34.9 °F 30% 30.19 in 10.0 mi SSW 9.2 mph - N/A   Clear
4:35 AM 66.2 °F 35.2 °F 32% 30.19 in 10.0 mi South 3.5 mph - N/A   Clear
4:55 AM 63.1 °F 36.7 °F 37% 30.19 in 10.0 mi SSE 5.8 mph - N/A   Clear
5:15 AM 61.9 °F 36.9 °F 39% 30.19 in 10.0 mi SSE 5.8 mph - N/A   Clear
5:35 AM 63.7 °F 36.0 °F 36% 30.19 in 10.0 mi South 4.6 mph - N/A   Clear
5:55 AM 65.3 °F 35.2 °F 33% 30.19 in 10.0 mi South 6.9 mph - N/A   Clear
6:15 AM 65.7 °F 35.1 °F 32% 30.20 in 10.0 mi SSW 5.8 mph - N/A   Clear
6:35 AM 67.1 °F 34.0 °F 29% 30.21 in 10.0 mi Calm Calm - N/A   Clear
6:55 AM 64.2 °F 35.4 °F 34% 30.21 in 10.0 mi East 9.2 mph - N/A   Clear
7:15 AM 64.8 °F 34.7 °F 33% 30.22 in 10.0 mi SE 8.1 mph - N/A   Clear
7:35 AM 65.8 °F 34.2 °F 31% 30.23 in 10.0 mi South 5.8 mph - N/A   Clear
7:55 AM 66.2 °F 34.2 °F 30% 30.23 in 10.0 mi South 6.9 mph - N/A   Clear
8:15 AM 68.9 °F 33.4 °F 27% 30.23 in 10.0 mi SSW 6.9 mph - N/A   Clear
8:35 AM 70.5 °F 33.6 °F 26% 30.24 in 10.0 mi SSW 4.6 mph - N/A   Clear
8:55 AM 69.6 °F 36.7 °F 30% 30.25 in 10.0 mi SE 6.9 mph - N/A   Clear
9:15 AM 72.3 °F 37.2 °F 28% 30.25 in 10.0 mi South 6.9 mph - N/A   Clear
9:35 AM 74.8 °F 37.6 °F 26% 30.26 in 10.0 mi SSW 6.9 mph - N/A   Clear
9:55 AM 76.5 °F 37.8 °F 25% 30.26 in 10.0 mi SSW 10.4 mph - N/A   Clear
10:15 AM 77.9 °F 37.8 °F 24% 30.27 in 10.0 mi South 8.1 mph - N/A   Clear
10:35 AM 79.5 °F 37.6 °F 22% 30.28 in 10.0 mi South 4.6 mph - N/A   Clear
10:55 AM 81.3 °F 36.7 °F 20% 30.28 in 10.0 mi Calm Calm - N/A   Clear
11:15 AM 80.6 °F 37.4 °F 21% 30.30 in 10.0 mi North 15.0 mph 23.0 mph N/A   Clear
11:35 AM 79.5 °F 39.2 °F 24% 30.31 in 10.0 mi NNE 10.4 mph - N/A   Clear
11:55 AM 80.6 °F 39.9 °F 23% 30.32 in 10.0 mi NNE 11.5 mph 17.3 mph N/A   Clear
12:15 PM 79.3 °F 41.4 °F 26% 30.32 in 10.0 mi NNE 13.8 mph 19.6 mph N/A   Clear
12:35 PM 77.5 °F 45.3 °F 32% 30.33 in 10.0 mi NNE 12.7 mph 19.6 mph N/A   Clear
12:55 PM 76.3 °F 47.5 °F 36% 30.33 in 10.0 mi NE 13.8 mph - N/A   Clear
1:35 PM 75.7 °F 47.1 °F 36% 30.33 in 10.0 mi NNE 11.5 mph 19.6 mph N/A   Clear
1:55 PM 75.6 °F 47.1 °F 36% 30.32 in 10.0 mi NE 9.2 mph 16.1 mph N/A   Clear
2:15 PM 75.2 °F 47.3 °F 37% 30.32 in 10.0 mi NE 9.2 mph - N/A   Clear
2:35 PM 75.6 °F 47.5 °F 37% 30.31 in 10.0 mi NE 8.1 mph - N/A   Clear
2:55 PM 75.7 °F 47.3 °F 36% 30.31 in 10.0 mi NNE 8.1 mph - N/A   Clear
3:15 PM 76.1 °F 47.3 °F 36% 30.30 in 10.0 mi NNE 9.2 mph - N/A   Clear
3:35 PM 76.5 °F 46.8 °F 35% 30.30 in 7.0 mi NE 4.6 mph - N/A   Clear
3:55 PM 76.5 °F 46.6 °F 35% 30.29 in 7.0 mi NNE 9.2 mph - N/A   Clear
4:15 PM 76.6 °F 46.6 °F 34% 30.29 in 7.0 mi NE 9.2 mph - N/A   Clear
4:35 PM 76.8 °F 46.2 °F 34% 30.29 in 7.0 mi NE 8.1 mph - N/A   Clear
4:55 PM 76.6 °F 45.9 °F 34% 30.28 in 7.0 mi ENE 9.2 mph - N/A   Clear
5:15 PM 76.5 °F 45.9 °F 34% 30.28 in 10.0 mi NE 8.1 mph - N/A   Scattered Clouds
5:35 PM 76.1 °F 45.0 °F 33% 30.28 in 10.0 mi NE 8.1 mph - N/A   Scattered Clouds
5:55 PM 75.7 °F 44.4 °F 33% 30.28 in 10.0 mi NE 5.8 mph - N/A   Clear
6:15 PM 75.2 °F 44.8 °F 34% 30.28 in 10.0 mi NE 6.9 mph - N/A   Clear
6:35 PM 74.1 °F 45.5 °F 36% 30.28 in 10.0 mi NE 6.9 mph - N/A   Clear
6:55 PM 72.7 °F 46.4 °F 39% 30.28 in 10.0 mi NE 5.8 mph - N/A   Clear
7:15 PM 70.9 °F 46.8 °F 42% 30.28 in 10.0 mi NE 4.6 mph - N/A   Clear
7:35 PM 68.4 °F 47.3 °F 47% 30.29 in 10.0 mi ENE 3.5 mph - N/A   Clear
7:55 PM 66.4 °F 48.0 °F 52% 30.29 in 10.0 mi NE 3.5 mph - N/A   Clear
8:15 PM 65.1 °F 47.7 °F 53% 30.29 in 10.0 mi Calm Calm - N/A   Clear
8:35 PM 64.8 °F 48.0 °F 55% 30.29 in 10.0 mi Calm Calm - N/A   Clear
8:55 PM 61.0 °F 49.8 °F 67% 30.30 in 10.0 mi Calm Calm - N/A   Clear
9:15 PM 59.2 °F 49.6 °F 71% 30.30 in 10.0 mi Calm Calm - N/A   Clear
9:35 PM 57.9 °F 50.0 °F 75% 30.30 in 10.0 mi SSW 3.5 mph - N/A   Clear
9:55 PM 56.8 °F 49.5 °F 76% 30.30 in 10.0 mi SW 4.6 mph - N/A   Clear
10:15 PM 56.5 °F 49.5 °F 77% 30.30 in 10.0 mi SW 4.6 mph - N/A   Clear
10:35 PM 55.9 °F 49.1 °F 78% 30.29 in 10.0 mi SW 5.8 mph - N/A   Clear
10:55 PM 55.9 °F 48.6 °F 76% 30.29 in 10.0 mi SW 6.9 mph - N/A   Clear
11:15 PM 55.0 °F 48.7 °F 79% 30.29 in 10.0 mi SSW 3.5 mph - N/A   Clear
11:35 PM 54.5 °F 48.6 °F 80% 30.28 in 10.0 mi SW 8.1 mph - N/A   Clear
11:55 PM 55.4 °F 48.2 °F 77% 30.28 in 10.0 mi SW 6.9 mph - N/A   Clear